Location: Unspecified
(0.0000°N, 0.0000°E)
Time: 02:56:32
(UTC+00:00)

Courier 1B Rocket - Pass Details

Date: 25 April 2024
Orbit: 920 x 1201 km, 28.2° (Epoch: 16 April)

Event Time Altitude Azimuth Distance (km) Brightness Sun altitude
Rises 19:27:02 0° 217° (SW) 3,748 8.3 -21.6°
Reaches altitude 10° 19:30:21 10° 201° (SSW) 2,847 7.5 -22.4°
Enters shadow 19:34:46 22° 162° (SSE) 2,181 6.5 -23.5°
